Location: Bernay
(48.6766°N, 2.9386°E)
Time: 01:47:28
(UTC+00:00)

Cosmos 1954 Rocket - Pass Details

Date: 12 January 2026
Orbit: 748 x 777 km, 74.0° (Epoch: 6 February)

Event Time Altitude Azimuth Distance (km) Brightness Sun altitude
Rises 16:41:41 0° 340° (NNW) 3,218 7.1 -4.5°
Reaches altitude 10° 16:44:08 10° 346° (NNW) 2,293 6.3 -4.9°
Maximum altitude 16:49:09 47° 61° (ENE) 1,001 4.2 -5.6°
Drops below altitude 10° 16:54:11 10° 135° (SE) 2,297 6.3 -6.4°
Sets 16:56:38 0° 141° (SE) 3,223 7.1 -6.7°
